EW9477 Weather Reports


time (UTC)temp
F
wind
direction
speed
knots
gust
knots
rain 1hr
in
rain 24hr
in
rain mn
in
humidity
%
barometer
mb
20260504194603 66 139 2.6 7.8 0.00 0.00 0.00 52 1007.1
20260504193100 67 152 3.5 7.8 0.00 0.00 0.00 49 1007.2
20260504191551 67 178 3.5 7.8 0.00 0.00 0.00 48 1007.2
20260504184558 68 143 3.5 7.8 0.00 0.00 0.00 46 1007.5
20260504183045 69 265 2.6 7.8 0.00 0.00 0.00 44 1007.6
20260504181545 70 123 1.7 6.1 0.00 0.00 0.00 43 1007.7
20260504180044 69 243 2.6 7.0 0.00 0.00 0.00 45 1007.8
20260504174543 68 154 2.6 7.8 0.00 0.00 0.00 45 1007.9
20260504173047 68 157 2.6 8.7 0.00 0.00 0.00 44 1008.1
20260504171536 67 63 3.5 7.0 0.00 0.00 0.00 43 1008.4
20260504140110 64 222 4.3 9.6 0.00 0.00 0.00 42 1009.8
20260504090111 46 235 0.0 1.7 0.00 0.00 0.00 65 1010.1
20260504081544 46 165 0.0 2.6 0.00 0.00 0.00 65 1009.9
20260504044538 46 215 0.0 2.6 0.00 0.00 0.00 65 1009.0
20260504043033 46 338 0.0 0.9 0.00 0.00 0.00 64 1009.0
20260504041522 47 338 0.0 0.9 0.00 0.00 0.00 62 1008.9
20260504040020 47 338 0.0 1.7 0.00 0.00 0.00 59 1008.9
20260504034531 48 338 0.0 1.7 0.00 0.00 0.00 56 1008.9
20260504033021 48 339 0.0 0.9 0.00 0.00 0.00 54 1008.8
20260504031518 49 338 0.0 2.6 0.00 0.00 0.00 51 1008.8
20260504030017 49 221 0.0 0.9 0.00 0.00 0.00 47 1008.8
20260504024521 49 221 0.0 0.9 0.00 0.00 0.00 46 1008.8
20260504023017 49 302 0.0 1.7 0.00 0.00 0.00 46 1008.8
20260504021520 49 323 0.0 3.5 0.00 0.00 0.00 46 1008.8
20260504020016 49 39 0.0 1.7 0.00 0.00 0.00 46 1008.8
20260504014515 50 39 0.0 0.9 0.00 0.00 0.00 45 1008.6
20260504013012 50 39 0.0 1.7 0.00 0.00 0.00 44 1008.5
20260504011509 50 39 0.0 0.9 0.00 0.00 0.00 43 1008.3
20260504010009 51 39 0.0 0.9 0.00 0.00 0.00 42 1008.2
20260504004510 52 39 0.0 0.9 0.00 0.00 0.00 41 1008.0
20260504003003 53 39 0.0 0.0 0.00 0.00 0.00 39 1007.8
20260504001502 54 39 0.0 0.0 0.00 0.00 0.00 37 1007.5
20260504000001 55 39 0.0 0.9 0.00 0.00 0.00 36 1007.3
20260503234501 55 39 0.0 3.5 0.00 0.00 0.00 34 1007.2
20260503233000 56 240 0.0 1.7 0.00 0.00 0.00 34 1007.0
20260503231600 56 360 0.9 5.2 0.00 0.00 0.00 32 1006.9
20260503230100 56 355 0.0 7.8 0.00 0.00 0.00 32 1006.8
20260503224559 57 360 1.7 7.0 0.00 0.00 0.00 32 1006.7
20260503224501 57 313 1.7 8.7 0.00 0.00 0.00 32 1006.6
20260503223059 57 348 1.7 7.0 0.00 0.00 0.00 32 1006.6
20260503221557 57 9 3.5 8.7 0.00 0.00 0.00 30 1006.6
20260503220109 58 306 4.3 9.6 0.00 0.00 0.00 30 1006.5
20260503214555 58 323 0.9 7.0 0.00 0.00 0.00 30 1006.5
20260503213056 58 337 2.6 7.0 0.00 0.00 0.00 31 1006.2
20260503211607 59 326 1.7 8.7 0.00 0.00 0.00 30 1006.3
20260503210057 59 238 3.5 9.6 0.00 0.00 0.00 29 1006.3
20260503204557 60 265 3.5 13.9 0.00 0.00 0.00 29 1006.1
20260503203052 60 5 1.7 13.0 0.00 0.00 0.00 30 1006.2
20260503201551 60 360 2.6 6.1 0.00 0.00 0.00 31 1006.4
20260503200049 59 304 2.6 12.2 0.00 0.00 0.00 32 1006.4